sat.trackr.live / text

‹ back to catalog

STARLINK-4363

NORAD 53220 · 2022-084AH

PAYLOAD ACTIVE UNKNOWN

§ Identity

Operator
Country
US
Launch date
2022-07-22
Launch site
AFWTR
Launch vehicle
Mass (kg)
RCS (m²)

Purposes: comms

External: N2YO · Heavens-Above · Gunter

§ Orbital elements

Epoch: 2026-05-25T03:46:46.742016Z

Period
95.63 min
Inclination
97.4455°
Eccentricity
0.0002749
Mean motion
15.05824324 rev/d
Perigee alt
547.1 km
Apogee alt
550.9 km
Semi-major
6,927.1 km
B*
-2.3985e-3
RAAN
205.0745°
Arg perigee
139.5976°
Mean anomaly
220.5456°
Rev number
21,133

§ Raw data

STARLINK-43631 53220U 22084AH  26145.15748544 -.00034662  00000+0 -23985-2 0  99952 53220  97.4455 205.0745 0002749 139.5976 220.5456 15.05824324211331

JSON: /api/v1/satellites/53220 · /tle

For live sub-satellite position, see the globe view (requires WebGL).

§ Visibility from observer

Set your observer location to see the next 7 days of passes ≥ 10°. The values pass through the URL so the page stays shareable.

No JS? Fill the form by hand. The geolocation button needs JavaScript.